Needles, CA

1:03 AM PDT on May 27, 2017 (GMT -0700)
Needles

Weather History for KEED - August, 2014

Change the Weather History Date:

Sunday, August 24, 2014

  Actual Average Record
Temperature  
Mean Temperature 90 °F 94 °F  
Max Temperature 104 °F 106 °F 118 °F (2011)
Min Temperature 77 °F 82 °F 65 °F (1968)
Degree Days  
Heating Degree Days 0    
Cooling Degree Days 24    
Growing Degree Days 40 (Base 50)    
Moisture  
Dew Point 40 °F    
Average Humidity 18    
Maximum Humidity 30    
Minimum Humidity 11    
Precipitation  
Precipitation 0.00 in 0.02 in 1.10 in (1982)
Month to date precipitation 0.33  
Year to date precipitation 2.87  
Sea Level Pressure  
Sea Level Pressure 29.67 in    
Wind  
Wind Speed 4 mph (SW)    
Max Wind Speed 15 mph    
Max Gust Speed 22 mph    
Visibility 10 miles    
Events      
T = Trace of Precipitation, MM = Missing Value Source: NWS Daily Summary

Daily Weather History Graph

Daily Weather History Graph

Search for Another Location

Airport or City:

Trip Planner

Search our weather history database for the weather conditions in past years. The results will help you decide how hot, cold, wet, or windy it might be!

Date:

Astronomy

Aug. 24, 2014 Rise Set
Actual Time 6:05 AM PDT 7:15 PM PDT
Civil Twilight 5:39 AM PDT 7:41 PM PDT
Nautical Twilight 5:08 AM PDT 8:12 PM PDT
Astronomical Twilight 4:35 AM PDT 8:44 PM PDT
Moon 5:19 AM PDT (8/24) 6:37 PM PDT (8/24)
Length of Visible Light 14h 02m
Length of Day
13h 09m
Waning Crescent, 1% of the Moon is Illuminated
Aug 24
Waning Crescent
Aug 25
New
Sep 2
First Quarter
Sep 8
Full
Sep 15
Last Quarter

Hourly Weather History & Observations

Time (PDT) Temp. Dew Point Humidity Pressure Visibility Wind Dir Wind Speed Gust Speed Precip Events Conditions
12:56 AM 82.0 °F 41.0 °F 23% 29.69 in 10.0 mi Calm Calm - N/A   Clear
1:56 AM 82.9 °F 37.0 °F 19% 29.68 in 10.0 mi Calm Calm - N/A   Clear
2:56 AM 80.1 °F 41.0 °F 25% 29.68 in 10.0 mi WSW 3.5 mph - N/A   Clear
3:56 AM 79.0 °F 42.1 °F 27% 29.68 in 10.0 mi Calm Calm - N/A   Clear
4:56 AM 78.1 °F 41.0 °F 27% 29.68 in 10.0 mi WNW 6.9 mph - N/A   Clear
5:56 AM 77.0 °F 41.0 °F 28% 29.70 in 10.0 mi WNW 5.8 mph - N/A   Clear
6:56 AM 79.0 °F 45.0 °F 30% 29.72 in 10.0 mi Calm Calm - N/A   Clear
7:56 AM 82.9 °F 46.9 °F 28% 29.73 in 10.0 mi Calm Calm - N/A   Clear
8:56 AM 87.1 °F 46.0 °F 24% 29.74 in 10.0 mi East 3.5 mph - N/A   Clear
9:56 AM 91.0 °F 44.1 °F 20% 29.74 in 10.0 mi Calm Calm - N/A   Clear
10:56 AM 96.1 °F 42.1 °F 15% 29.73 in 10.0 mi Calm Calm - N/A   Clear
11:56 AM 99.0 °F 41.0 °F 14% 29.71 in 10.0 mi ESE 6.9 mph - N/A   Clear
12:56 PM 100.9 °F 36.0 °F 11% 29.70 in 10.0 mi SSW 9.2 mph 18.4 mph N/A   Clear
1:56 PM 102.0 °F 37.9 °F 11% 29.67 in 10.0 mi SSW 15.0 mph 21.9 mph N/A   Clear
2:56 PM 102.0 °F 39.0 °F 11% 29.65 in 10.0 mi SSW 12.7 mph 18.4 mph N/A   Clear
3:56 PM 102.0 °F 37.9 °F 11% 29.63 in 10.0 mi SW 15.0 mph 20.7 mph N/A   Clear
4:56 PM 102.0 °F 39.9 °F 12% 29.61 in 10.0 mi South 9.2 mph 21.9 mph N/A   Clear
5:56 PM 102.0 °F 37.0 °F 11% 29.60 in 10.0 mi SSW 11.5 mph - N/A   Clear
6:56 PM 100.0 °F 39.9 °F 13% 29.60 in 10.0 mi SSW 12.7 mph - N/A   Clear
7:56 PM 97.0 °F 39.9 °F 14% 29.60 in 10.0 mi SW 9.2 mph - N/A   Clear
8:56 PM 95.0 °F 39.0 °F 14% 29.63 in 10.0 mi WSW 6.9 mph - N/A   Clear
9:56 PM 95.0 °F 34.0 °F 12% 29.64 in 10.0 mi WSW 12.7 mph - N/A   Clear
10:56 PM 91.9 °F 36.0 °F 14% 29.64 in 10.0 mi WSW 6.9 mph - N/A   Clear
11:56 PM 93.0 °F 33.1 °F 12% 29.65 in 10.0 mi WSW 11.5 mph - N/A   Clear